| time (UTC) | temp C | wind direction | speed KPH | gust KPH | rain 1hr cm | rain 24hr cm | rain mn cm | humidity % | barometer mb |
| 20260510105840 | 20 | 172 | 9.7 | 11.3 | 0.00 | 0.00 | 0.00 | 49 | 1012.6 |
| 20260510104340 | 22 | 320 | 0.0 | 0.0 | 0.00 | 0.00 | 0.00 | 45 | 1013.2 |
| 20260510103840 | 22 | 348 | 0.0 | 0.0 | 0.00 | 0.00 | 0.00 | 44 | 1013.2 |
| 20260510103339 | 23 | 343 | 0.0 | 0.0 | 0.00 | 0.00 | 0.00 | 42 | 1013.2 |
| 20260510102841 | 23 | 314 | 0.0 | 0.0 | 0.00 | 0.00 | 0.00 | 44 | 1013.3 |
| 20260510102337 | 22 | 309 | 0.0 | 0.0 | 0.00 | 0.00 | 0.00 | 45 | 1013.2 |
| 20260510101837 | 22 | 309 | 0.0 | 0.0 | 0.00 | 0.00 | 0.00 | 43 | 1013.2 |
| 20260510101336 | 22 | 316 | 0.0 | 0.0 | 0.00 | 0.00 | 0.00 | 45 | 1013.2 |
| 20260510100836 | 22 | 319 | 0.0 | 0.0 | 0.00 | 0.00 | 0.00 | 43 | 1013.4 |
| 20260510100336 | 22 | 340 | 0.0 | 12.9 | 0.00 | 0.00 | 0.00 | 43 | 1013.7 |
| 20260510095837 | 22 | 323 | 0.0 | 12.9 | 0.00 | 0.00 | 0.00 | 45 | 1013.7 |
| 20260510095337 | 17 | 30 | 11.3 | 12.9 | 0.00 | 0.00 | 0.00 | 57 | 1013.7 |
| 20260510094837 | 17 | 30 | 11.3 | 12.9 | 0.00 | 0.00 | 0.00 | 57 | 1013.7 |
| 20260510094337 | 17 | 30 | 11.3 | 12.9 | 0.00 | 0.00 | 0.00 | 57 | 1013.7 |
| 20260510093837 | 17 | 30 | 11.3 | 12.9 | 0.00 | 0.00 | 0.00 | 57 | 1013.7 |
| 20260510092329 | 17 | 30 | 11.3 | 12.9 | 0.00 | 0.00 | 0.00 | 57 | 1014.0 |
| 20260510091830 | 17 | 30 | 11.3 | 12.9 | 0.00 | 0.00 | 0.00 | 57 | 1014.3 |
| 20260510091329 | 17 | 30 | 11.3 | 12.9 | 0.00 | 0.00 | 0.00 | 57 | 1014.3 |
| 20260510090330 | 17 | 30 | 11.3 | 12.9 | 0.00 | 0.00 | 0.00 | 57 | 1014.4 |
| 20260510085322 | 17 | 152 | 4.8 | 14.5 | 0.00 | 0.00 | 0.00 | 57 | 1014.8 |
| 20260510084822 | 17 | 111 | 9.7 | 14.5 | 0.00 | 0.00 | 0.00 | 58 | 1014.7 |
| 20260510084329 | 17 | 117 | 4.8 | 9.7 | 0.00 | 0.00 | 0.00 | 58 | 1014.5 |
| 20260510083320 | 17 | 103 | 6.4 | 9.7 | 0.00 | 0.00 | 0.00 | 57 | 1014.9 |
| 20260510081755 | 16 | 67 | 8.0 | 9.7 | 0.00 | 0.00 | 0.00 | 58 | 1015.2 |
| 20260510080753 | 16 | 67 | 8.0 | 9.7 | 0.00 | 0.00 | 0.00 | 58 | 1015.2 |
| 20260510080253 | 16 | 120 | 0.0 | 6.4 | 0.00 | 0.00 | 0.00 | 58 | 1015.4 |
| 20260510075752 | 16 | 139 | 4.8 | 6.4 | 0.00 | 0.00 | 0.00 | 58 | 1015.6 |
| 20260510075253 | 15 | 181 | 4.8 | 8.0 | 0.00 | 0.00 | 0.00 | 61 | 1015.5 |
| 20260510074756 | 15 | 89 | 0.0 | 16.1 | 0.00 | 0.00 | 0.00 | 61 | 1015.5 |
| 20260510074252 | 15 | 106 | 8.0 | 16.1 | 0.00 | 0.00 | 0.00 | 62 | 1015.5 |
| 20260510073753 | 15 | 117 | 3.2 | 12.9 | 0.00 | 0.00 | 0.00 | 59 | 1015.6 |
| 20260510073253 | 15 | 38 | 8.0 | 12.9 | 0.00 | 0.00 | 0.00 | 61 | 1015.6 |
| 20260510072746 | 14 | 97 | 6.4 | 12.9 | 0.00 | 0.00 | 0.00 | 63 | 1015.5 |
| 20260510072242 | 14 | 171 | 0.0 | 9.7 | 0.00 | 0.00 | 0.00 | 62 | 1015.7 |
| 20260510071743 | 13 | 146 | 3.2 | 9.7 | 0.00 | 0.00 | 0.00 | 64 | 1015.8 |
| 20260510070742 | 14 | 142 | 0.0 | 9.7 | 0.00 | 0.00 | 0.00 | 62 | 1015.9 |
| 20260510070242 | 14 | 142 | 0.0 | 9.7 | 0.00 | 0.00 | 0.00 | 62 | 1015.8 |
| 20260510065742 | 14 | 39 | 1.6 | 8.0 | 0.00 | 0.00 | 0.00 | 63 | 1016.0 |
| 20260510064735 | 13 | 183 | 3.2 | 6.4 | 0.00 | 0.00 | 0.00 | 66 | 1016.0 |
| 20260510064236 | 12 | 208 | 0.0 | 0.0 | 0.00 | 0.00 | 0.00 | 70 | 1016.1 |
| 20260510063735 | 12 | 208 | 0.0 | 0.0 | 0.00 | 0.00 | 0.00 | 71 | 1016.0 |
| 20260510063235 | 11 | 208 | 0.0 | 0.0 | 0.00 | 0.00 | 0.00 | 72 | 1016.1 |
| 20260510062735 | 11 | 208 | 0.0 | 0.0 | 0.00 | 0.00 | 0.00 | 71 | 1016.0 |
| 20260510062232 | 11 | 208 | 0.0 | 0.0 | 0.00 | 0.00 | 0.00 | 73 | 1016.1 |
| 20260510061731 | 10 | 200 | 0.0 | 0.0 | 0.00 | 0.00 | 0.00 | 75 | 1016.1 |
| 20260510060231 | 10 | 196 | 0.0 | 0.0 | 0.00 | 0.00 | 0.00 | 78 | 1016.2 |
| 20260510055731 | 9 | 196 | 0.0 | 0.0 | 0.00 | 0.00 | 0.00 | 78 | 1016.2 |
| 20260510055220 | 9 | 196 | 0.0 | 0.0 | 0.00 | 0.00 | 0.00 | 79 | 1016.5 |
| 20260510054721 | 9 | 196 | 0.0 | 0.0 | 0.00 | 0.00 | 0.00 | 79 | 1016.4 |
| 20260510054221 | 9 | 196 | 0.0 | 0.0 | 0.00 | 0.00 | 0.00 | 79 | 1016.6 |
| 20260510053722 | 8 | 196 | 0.0 | 0.0 | 0.00 | 0.00 | 0.00 | 80 | 1016.4 |
| 20260510053221 | 8 | 184 | 0.0 | 0.0 | 0.00 | 0.00 | 0.00 | 81 | 1016.6 |
| 20260510052721 | 8 | 184 | 0.0 | 0.0 | 0.00 | 0.00 | 0.00 | 82 | 1016.6 |
| 20260510052214 | 8 | 184 | 0.0 | 0.0 | 0.00 | 0.00 | 0.00 | 81 | 1016.3 |
| 20260510051714 | 8 | 184 | 0.0 | 0.0 | 0.00 | 0.00 | 0.00 | 81 | 1016.6 |
| 20260510051214 | 8 | 184 | 0.0 | 0.0 | 0.00 | 0.00 | 0.00 | 82 | 1016.0 |
| 20260510050702 | 7 | 184 | 0.0 | 0.0 | 0.00 | 0.00 | 0.00 | 82 | 1016.3 |
| 20260510045703 | 7 | 183 | 0.0 | 0.0 | 0.00 | 0.00 | 0.00 | 83 | 1016.3 |
| 20260510045145 | 7 | 183 | 0.0 | 0.0 | 0.00 | 0.00 | 0.00 | 84 | 1016.2 |
| 20260510044143 | 6 | 183 | 0.0 | 0.0 | 0.00 | 0.00 | 0.00 | 86 | 1016.5 |
| 20260510043643 | 6 | 183 | 0.0 | 0.0 | 0.00 | 0.00 | 0.00 | 87 | 1016.4 |
| 20260510043143 | 6 | 183 | 0.0 | 0.0 | 0.00 | 0.00 | 0.00 | 87 | 1016.3 |
| 20260510042643 | 6 | 183 | 0.0 | 0.0 | 0.00 | 0.00 | 0.00 | 88 | 1016.3 |
| 20260510042138 | 5 | 183 | 0.0 | 0.0 | 0.00 | 0.00 | 0.00 | 88 | 1016.4 |
| 20260510041139 | 5 | 183 | 0.0 | 0.0 | 0.00 | 0.00 | 0.00 | 87 | 1016.4 |
| 20260510040639 | 5 | 183 | 0.0 | 0.0 | 0.00 | 0.00 | 0.00 | 87 | 1016.3 |
| 20260510035638 | 5 | 183 | 0.0 | 0.0 | 0.00 | 0.00 | 0.00 | 88 | 1016.7 |
| 20260510035130 | 5 | 183 | 0.0 | 0.0 | 0.00 | 0.00 | 0.00 | 88 | 1016.3 |
| 20260510034629 | 5 | 183 | 0.0 | 0.0 | 0.00 | 0.00 | 0.00 | 89 | 1016.8 |
| 20260510034129 | 5 | 183 | 0.0 | 0.0 | 0.00 | 0.00 | 0.00 | 89 | 1016.9 |
| 20260510033629 | 5 | 183 | 0.0 | 0.0 | 0.00 | 0.00 | 0.00 | 89 | 1016.8 |
| 20260510033129 | 5 | 183 | 0.0 | 0.0 | 0.00 | 0.00 | 0.00 | 89 | 1016.8 |
| 20260510032629 | 5 | 183 | 0.0 | 0.0 | 0.00 | 0.00 | 0.00 | 89 | 1016.6 |
| 20260510032121 | 5 | 183 | 0.0 | 0.0 | 0.00 | 0.00 | 0.00 | 89 | 1016.7 |
| 20260510031622 | 5 | 183 | 0.0 | 0.0 | 0.00 | 0.00 | 0.00 | 89 | 1016.6 |
| 20260510031123 | 5 | 183 | 0.0 | 0.0 | 0.00 | 0.00 | 0.00 | 89 | 1016.6 |
| 20260510030622 | 5 | 183 | 0.0 | 0.0 | 0.00 | 0.00 | 0.00 | 89 | 1016.8 |
| 20260510030122 | 5 | 183 | 0.0 | 0.0 | 0.00 | 0.00 | 0.00 | 89 | 1016.9 |
| 20260510025622 | 5 | 183 | 0.0 | 0.0 | 0.00 | 0.00 | 0.00 | 89 | 1016.7 |
| 20260510025118 | 5 | 183 | 0.0 | 0.0 | 0.00 | 0.00 | 0.00 | 88 | 1016.9 |
| 20260510024618 | 5 | 183 | 0.0 | 0.0 | 0.00 | 0.00 | 0.00 | 88 | 1016.9 |
| 20260510024107 | 5 | 183 | 0.0 | 0.0 | 0.00 | 0.00 | 0.00 | 88 | 1016.7 |
| 20260510023606 | 5 | 183 | 0.0 | 0.0 | 0.00 | 0.00 | 0.00 | 88 | 1016.8 |
| 20260510023106 | 5 | 183 | 0.0 | 0.0 | 0.00 | 0.00 | 0.00 | 88 | 1016.6 |
| 20260510022606 | 5 | 183 | 0.0 | 0.0 | 0.00 | 0.00 | 0.00 | 88 | 1016.7 |
| 20260510022106 | 5 | 183 | 0.0 | 0.0 | 0.00 | 0.00 | 0.00 | 87 | 1016.7 |
| 20260510021607 | 5 | 183 | 0.0 | 0.0 | 0.00 | 0.00 | 0.00 | 87 | 1016.6 |
| 20260510021106 | 5 | 183 | 0.0 | 0.0 | 0.00 | 0.00 | 0.00 | 86 | 1016.8 |
| 20260510020600 | 6 | 183 | 0.0 | 0.0 | 0.00 | 0.00 | 0.00 | 85 | 1016.7 |
| 20260510020054 | 6 | 183 | 0.0 | 0.0 | 0.00 | 0.00 | 0.00 | 85 | 1016.8 |
| 20260510015554 | 6 | 183 | 0.0 | 0.0 | 0.00 | 0.00 | 0.00 | 85 | 1016.9 |
| 20260510014547 | 6 | 183 | 0.0 | 0.0 | 0.00 | 0.00 | 0.00 | 84 | 1016.8 |
| 20260510014047 | 6 | 183 | 0.0 | 0.0 | 0.00 | 0.00 | 0.00 | 84 | 1016.6 |
| 20260510013547 | 6 | 183 | 0.0 | 0.0 | 0.00 | 0.00 | 0.00 | 84 | 1016.7 |
| 20260510012547 | 6 | 183 | 0.0 | 0.0 | 0.00 | 0.00 | 0.00 | 83 | 1016.7 |
| 20260510012043 | 6 | 183 | 0.0 | 0.0 | 0.00 | 0.00 | 0.00 | 83 | 1016.9 |
| 20260510011543 | 6 | 183 | 0.0 | 0.0 | 0.00 | 0.00 | 0.00 | 83 | 1016.6 |
| 20260510011043 | 6 | 183 | 0.0 | 0.0 | 0.00 | 0.00 | 0.00 | 82 | 1016.6 |
| 20260510010543 | 6 | 183 | 0.0 | 0.0 | 0.00 | 0.00 | 0.00 | 82 | 1016.7 |
| 20260510010043 | 6 | 183 | 0.0 | 0.0 | 0.00 | 0.00 | 0.00 | 82 | 1016.8 |
| 20260510005544 | 6 | 183 | 0.0 | 0.0 | 0.00 | 0.00 | 0.00 | 82 | 1017.0 |
| 20260510005041 | 7 | 183 | 0.0 | 0.0 | 0.00 | 0.00 | 0.00 | 81 | 1017.0 |
| 20260510004541 | 7 | 183 | 0.0 | 0.0 | 0.00 | 0.00 | 0.00 | 81 | 1016.9 |
| 20260510004042 | 7 | 183 | 0.0 | 0.0 | 0.00 | 0.00 | 0.00 | 81 | 1017.2 |
| 20260510003543 | 7 | 183 | 0.0 | 0.0 | 0.00 | 0.00 | 0.00 | 81 | 1016.9 |
| 20260510003044 | 7 | 183 | 0.0 | 0.0 | 0.00 | 0.00 | 0.00 | 82 | 1017.3 |
| 20260510002544 | 7 | 183 | 0.0 | 0.0 | 0.00 | 0.00 | 0.00 | 82 | 1017.4 |
| 20260510002037 | 7 | 183 | 0.0 | 0.0 | 0.00 | 0.00 | 0.00 | 83 | 1017.2 |
| 20260510001536 | 7 | 235 | 0.0 | 0.0 | 0.00 | 0.00 | 0.00 | 83 | 1017.5 |
| 20260510001036 | 7 | 235 | 0.0 | 0.0 | 0.00 | 0.00 | 0.00 | 84 | 1017.5 |
| 20260510000537 | 6 | 235 | 0.0 | 0.0 | 0.00 | 0.00 | 0.00 | 84 | 1017.4 |
| 20260510000049 | 6 | 239 | 0.0 | 0.0 | 0.00 | 0.00 | 0.00 | 85 | 1017.5 |
| 20260509235536 | 6 | 239 | 0.0 | 0.0 | 0.00 | 0.00 | 0.00 | 85 | 1017.6 |
| 20260509235036 | 6 | 239 | 0.0 | 0.0 | 0.00 | 0.00 | 0.00 | 84 | 1017.7 |
| 20260509234036 | 7 | 239 | 0.0 | 0.0 | 0.00 | 0.00 | 0.00 | 83 | 1017.7 |
| 20260509233535 | 7 | 239 | 0.0 | 0.0 | 0.00 | 0.00 | 0.00 | 83 | 1017.6 |
| 20260509233035 | 7 | 239 | 0.0 | 0.0 | 0.00 | 0.00 | 0.00 | 82 | 1017.6 |
| 20260509232537 | 7 | 240 | 0.0 | 0.0 | 0.00 | 0.00 | 0.00 | 83 | 1018.2 |
| 20260509232031 | 7 | 240 | 0.0 | 0.0 | 0.00 | 0.00 | 0.00 | 83 | 1017.9 |
| 20260509231532 | 7 | 239 | 0.0 | 0.0 | 0.00 | 0.00 | 0.00 | 83 | 1018.2 |
| 20260509230530 | 7 | 239 | 0.0 | 0.0 | 0.00 | 0.00 | 0.00 | 81 | 1018.4 |
| 20260509230030 | 7 | 239 | 0.0 | 0.0 | 0.00 | 0.00 | 0.00 | 80 | 1018.2 |
| 20260509225531 | 8 | 239 | 0.0 | 0.0 | 0.00 | 0.00 | 0.00 | 78 | 1017.9 |
| 20260509225031 | 8 | 239 | 0.0 | 0.0 | 0.00 | 0.00 | 0.00 | 78 | 1018.4 |
| 20260509224531 | 8 | 239 | 0.0 | 0.0 | 0.00 | 0.00 | 0.00 | 78 | 1018.4 |
| 20260509224030 | 8 | 239 | 0.0 | 0.0 | 0.00 | 0.00 | 0.00 | 78 | 1018.4 |
| 20260509223031 | 8 | 240 | 0.0 | 0.0 | 0.00 | 0.00 | 0.00 | 76 | 1018.4 |
| 20260509222035 | 8 | 240 | 0.0 | 0.0 | 0.00 | 0.00 | 0.00 | 76 | 1018.6 |
| 20260509221530 | 9 | 240 | 0.0 | 0.0 | 0.00 | 0.00 | 0.00 | 75 | 1018.3 |
| 20260509221031 | 9 | 240 | 0.0 | 0.0 | 0.00 | 0.00 | 0.00 | 74 | 1018.6 |
| 20260509220530 | 9 | 240 | 0.0 | 0.0 | 0.00 | 0.00 | 0.00 | 74 | 1018.4 |
| 20260509220031 | 9 | 240 | 0.0 | 0.0 | 0.00 | 0.00 | 0.00 | 74 | 1018.6 |
| 20260509215530 | 9 | 240 | 0.0 | 0.0 | 0.00 | 0.00 | 0.00 | 73 | 1018.5 |
| 20260509215030 | 10 | 240 | 0.0 | 0.0 | 0.00 | 0.00 | 0.00 | 73 | 1018.4 |
| 20260509214531 | 10 | 240 | 0.0 | 0.0 | 0.00 | 0.00 | 0.00 | 72 | 1018.3 |
| 20260509214029 | 10 | 240 | 0.0 | 0.0 | 0.00 | 0.00 | 0.00 | 72 | 1018.6 |
| 20260509213030 | 10 | 240 | 0.0 | 0.0 | 0.00 | 0.00 | 0.00 | 71 | 1018.3 |
| 20260509212543 | 10 | 240 | 0.0 | 0.0 | 0.00 | 0.00 | 0.00 | 72 | 1018.3 |
| 20260509211529 | 10 | 240 | 0.0 | 0.0 | 0.00 | 0.00 | 0.00 | 70 | 1018.4 |
| 20260509211030 | 10 | 240 | 0.0 | 0.0 | 0.00 | 0.00 | 0.00 | 70 | 1018.3 |
| 20260509210530 | 10 | 240 | 0.0 | 0.0 | 0.00 | 0.00 | 0.00 | 71 | 1018.4 |
| 20260509210032 | 10 | 240 | 0.0 | 0.0 | 0.00 | 0.00 | 0.00 | 71 | 1018.5 |
| 20260509205530 | 10 | 240 | 0.0 | 0.0 | 0.00 | 0.00 | 0.00 | 69 | 1018.6 |
| 20260509205030 | 10 | 240 | 0.0 | 0.0 | 0.00 | 0.00 | 0.00 | 69 | 1018.3 |
| 20260509204530 | 10 | 240 | 0.0 | 0.0 | 0.00 | 0.00 | 0.00 | 69 | 1018.5 |
| 20260509204030 | 10 | 240 | 0.0 | 0.0 | 0.00 | 0.00 | 0.00 | 69 | 1018.1 |
| 20260509203030 | 11 | 240 | 0.0 | 0.0 | 0.00 | 0.00 | 0.00 | 68 | 1018.2 |
| 20260509202531 | 11 | 240 | 0.0 | 0.0 | 0.00 | 0.00 | 0.00 | 68 | 1018.4 |
| 20260509201030 | 11 | 240 | 0.0 | 0.0 | 0.00 | 0.00 | 0.00 | 68 | 1018.2 |
| 20260509200530 | 11 | 240 | 0.0 | 0.0 | 0.00 | 0.00 | 0.00 | 68 | 1018.3 |
| 20260509200030 | 11 | 240 | 0.0 | 0.0 | 0.00 | 0.00 | 0.00 | 68 | 1018.2 |
| 20260509195530 | 11 | 244 | 0.0 | 0.0 | 0.00 | 0.00 | 0.00 | 67 | 1018.2 |
| 20260509195030 | 12 | 235 | 0.0 | 0.0 | 0.00 | 0.00 | 0.00 | 66 | 1018.2 |
| 20260509194530 | 12 | 235 | 0.0 | 0.0 | 0.00 | 0.00 | 0.00 | 66 | 1018.3 |
| 20260509193030 | 12 | 264 | 0.0 | 0.0 | 0.00 | 0.00 | 0.00 | 65 | 1018.2 |
| 20260509192030 | 13 | 265 | 0.0 | 0.0 | 0.00 | 0.00 | 0.00 | 64 | 1018.2 |
| 20260509191530 | 13 | 268 | 0.0 | 0.0 | 0.00 | 0.00 | 0.00 | 63 | 1018.3 |
| 20260509191028 | 13 | 268 | 0.0 | 0.0 | 0.00 | 0.00 | 0.00 | 62 | 1018.1 |
| 20260509190032 | 13 | 241 | 0.0 | 0.0 | 0.00 | 0.00 | 0.00 | 62 | 1017.5 |
| 20260509185528 | 13 | 253 | 0.0 | 0.0 | 0.00 | 0.00 | 0.00 | 62 | 1017.9 |
| 20260509184020 | 17 | 98 | 12.9 | 14.5 | 0.00 | 0.00 | 0.00 | 53 | 1017.4 |
| 20260509183514 | 17 | 98 | 12.9 | 14.5 | 0.00 | 0.00 | 0.00 | 53 | 1017.3 |
| 20260509183013 | 17 | 98 | 12.9 | 14.5 | 0.00 | 0.00 | 0.00 | 53 | 1017.3 |
| 20260509182515 | 17 | 98 | 12.9 | 14.5 | 0.00 | 0.00 | 0.00 | 53 | 1017.4 |
| 20260509182014 | 17 | 98 | 12.9 | 14.5 | 0.00 | 0.00 | 0.00 | 53 | 1017.4 |
| 20260509181514 | 17 | 98 | 12.9 | 14.5 | 0.00 | 0.00 | 0.00 | 53 | 1017.0 |
| 20260509181002 | 17 | 98 | 12.9 | 14.5 | 0.00 | 0.00 | 0.00 | 53 | 1017.1 |
| 20260509180503 | 17 | 98 | 12.9 | 14.5 | 0.00 | 0.00 | 0.00 | 53 | 1017.0 |
| 20260509180003 | 17 | 98 | 12.9 | 14.5 | 0.00 | 0.00 | 0.00 | 53 | 1016.8 |
| 20260509174956 | 17 | 98 | 12.9 | 14.5 | 0.00 | 0.00 | 0.00 | 53 | 1016.9 |
| 20260509174450 | 17 | 98 | 12.9 | 14.5 | 0.00 | 0.00 | 0.00 | 53 | 1017.1 |
| 20260509173950 | 16 | 264 | 0.0 | 0.0 | 0.00 | 0.00 | 0.00 | 53 | 1017.0 |
| 20260509173444 | 17 | 236 | 0.0 | 0.0 | 0.00 | 0.00 | 0.00 | 53 | 1016.8 |
| 20260509172946 | 17 | 256 | 0.0 | 0.0 | 0.00 | 0.00 | 0.00 | 52 | 1016.9 |
| 20260509172442 | 17 | 259 | 0.0 | 0.0 | 0.00 | 0.00 | 0.00 | 50 | 1016.6 |
| 20260509171939 | 17 | 216 | 0.0 | 0.0 | 0.00 | 0.00 | 0.00 | 51 | 1016.7 |
| 20260509171436 | 17 | 225 | 0.0 | 0.0 | 0.00 | 0.00 | 0.00 | 50 | 1016.7 |
| 20260509170932 | 18 | 200 | 0.0 | 0.0 | 0.00 | 0.00 | 0.00 | 48 | 1016.8 |
| 20260509170432 | 18 | 268 | 0.0 | 0.0 | 0.00 | 0.00 | 0.00 | 47 | 1016.6 |
| 20260509165432 | 19 | 200 | 0.0 | 0.0 | 0.00 | 0.00 | 0.00 | 46 | 1016.4 |
| 20260509164930 | 20 | 272 | 0.0 | 8.0 | 0.00 | 0.00 | 0.00 | 45 | 1016.5 |
| 20260509164431 | 20 | 286 | 0.0 | 8.0 | 0.00 | 0.00 | 0.00 | 43 | 1016.6 |
| 20260509163430 | 20 | 155 | 6.4 | 8.0 | 0.00 | 0.00 | 0.00 | 43 | 1016.7 |
| 20260509162930 | 20 | 155 | 6.4 | 8.0 | 0.00 | 0.00 | 0.00 | 43 | 1016.6 |
| 20260509162430 | 20 | 155 | 6.4 | 8.0 | 0.00 | 0.00 | 0.00 | 43 | 1016.3 |
| 20260509161930 | 20 | 155 | 6.4 | 8.0 | 0.00 | 0.00 | 0.00 | 43 | 1016.6 |
| 20260509161430 | 20 | 155 | 6.4 | 8.0 | 0.00 | 0.00 | 0.00 | 43 | 1016.6 |
| 20260509160930 | 20 | 155 | 6.4 | 8.0 | 0.00 | 0.00 | 0.00 | 43 | 1016.6 |
| 20260509160430 | 20 | 155 | 6.4 | 8.0 | 0.00 | 0.00 | 0.00 | 43 | 1016.6 |
| 20260509155430 | 20 | 155 | 6.4 | 8.0 | 0.00 | 0.00 | 0.00 | 43 | 1016.7 |
| 20260509154930 | 20 | 155 | 6.4 | 8.0 | 0.00 | 0.00 | 0.00 | 43 | 1016.8 |
| 20260509154430 | 20 | 155 | 6.4 | 8.0 | 0.00 | 0.00 | 0.00 | 43 | 1016.6 |
| 20260509153930 | 23 | 320 | 0.0 | 0.0 | 0.00 | 0.00 | 0.00 | 40 | 1016.5 |
| 20260509153430 | 25 | 321 | 0.0 | 0.0 | 0.00 | 0.00 | 0.00 | 37 | 1016.6 |
| 20260509152931 | 25 | 322 | 0.0 | 0.0 | 0.00 | 0.00 | 0.00 | 37 | 1017.0 |
| 20260509152430 | 24 | 288 | 0.0 | 0.0 | 0.00 | 0.00 | 0.00 | 37 | 1016.7 |
| 20260509151430 | 21 | 293 | 0.0 | 0.0 | 0.00 | 0.00 | 0.00 | 43 | 1017.0 |
| 20260509150930 | 20 | 310 | 0.0 | 0.0 | 0.00 | 0.00 | 0.00 | 45 | 1016.9 |
| 20260509145930 | 22 | 267 | 0.0 | 0.0 | 0.00 | 0.00 | 0.00 | 41 | 1016.8 |
| 20260509144930 | 23 | 165 | 0.0 | 0.0 | 0.00 | 0.00 | 0.00 | 39 | 1016.8 |
| 20260509143931 | 22 | 319 | 0.0 | 0.0 | 0.00 | 0.00 | 0.00 | 41 | 1016.8 |
| 20260509143430 | 24 | 319 | 0.0 | 0.0 | 0.00 | 0.00 | 0.00 | 39 | 1016.9 |
| 20260509142929 | 23 | 301 | 0.0 | 0.0 | 0.00 | 0.00 | 0.00 | 38 | 1016.8 |
| 20260509142432 | 23 | 246 | 0.0 | 0.0 | 0.00 | 0.00 | 0.00 | 40 | 1017.1 |
| 20260509141931 | 23 | 232 | 0.0 | 0.0 | 0.00 | 0.00 | 0.00 | 39 | 1016.9 |
| 20260509141430 | 23 | 232 | 0.0 | 0.0 | 0.00 | 0.00 | 0.00 | 40 | 1016.8 |
| 20260509140929 | 21 | 217 | 0.0 | 0.0 | 0.00 | 0.00 | 0.00 | 45 | 1017.0 |
| 20260509140430 | 21 | 294 | 0.0 | 0.0 | 0.00 | 0.00 | 0.00 | 42 | 1017.2 |
| 20260509135930 | 22 | 334 | 0.0 | 0.0 | 0.00 | 0.00 | 0.00 | 44 | 1016.9 |
| 20260509134931 | 21 | 244 | 0.0 | 9.7 | 0.00 | 0.00 | 0.00 | 43 | 1017.2 |
| 20260509134430 | 22 | 119 | 6.4 | 9.7 | 0.00 | 0.00 | 0.00 | 43 | 1017.1 |
| 20260509133430 | 22 | 119 | 6.4 | 9.7 | 0.00 | 0.00 | 0.00 | 43 | 1017.0 |
| 20260509132930 | 22 | 119 | 6.4 | 9.7 | 0.00 | 0.00 | 0.00 | 43 | 1017.2 |
| 20260509132430 | 22 | 119 | 6.4 | 9.7 | 0.00 | 0.00 | 0.00 | 43 | 1017.3 |
| 20260509131931 | 22 | 119 | 6.4 | 9.7 | 0.00 | 0.00 | 0.00 | 43 | 1017.4 |
| 20260509131430 | 22 | 119 | 6.4 | 9.7 | 0.00 | 0.00 | 0.00 | 43 | 1017.3 |
| 20260509130930 | 22 | 119 | 6.4 | 9.7 | 0.00 | 0.00 | 0.00 | 43 | 1017.2 |
| 20260509125930 | 22 | 119 | 6.4 | 9.7 | 0.00 | 0.00 | 0.00 | 43 | 1017.5 |
| 20260509125430 | 22 | 119 | 6.4 | 9.7 | 0.00 | 0.00 | 0.00 | 43 | 1017.2 |
| 20260509124430 | 23 | 251 | 3.2 | 6.4 | 0.00 | 0.00 | 0.00 | 39 | 1017.4 |
| 20260509123431 | 21 | 52 | 4.8 | 8.0 | 0.00 | 0.00 | 0.00 | 45 | 1017.6 |
| 20260509122929 | 21 | 52 | 4.8 | 8.0 | 0.00 | 0.00 | 0.00 | 45 | 1017.7 |
| 20260509122430 | 20 | 148 | 6.4 | 8.0 | 0.00 | 0.00 | 0.00 | 45 | 1017.4 |
| 20260509121926 | 20 | 148 | 6.4 | 8.0 | 0.00 | 0.00 | 0.00 | 45 | 1017.5 |
| 20260509121431 | 20 | 148 | 6.4 | 8.0 | 0.00 | 0.00 | 0.00 | 45 | 1017.4 |
| 20260509120926 | 20 | 148 | 6.4 | 8.0 | 0.00 | 0.00 | 0.00 | 45 | 1017.5 |
| 20260509120426 | 20 | 148 | 6.4 | 8.0 | 0.00 | 0.00 | 0.00 | 45 | 1017.5 |
| 20260509115926 | 20 | 148 | 6.4 | 8.0 | 0.00 | 0.00 | 0.00 | 45 | 1017.7 |
| 20260509115427 | 20 | 148 | 6.4 | 8.0 | 0.00 | 0.00 | 0.00 | 45 | 1017.8 |
| 20260509114416 | 21 | 236 | 0.0 | 0.0 | 0.00 | 0.00 | 0.00 | 47 | 1017.8 |
| 20260509112916 | 23 | 181 | 0.0 | 6.4 | 0.00 | 0.00 | 0.00 | 40 | 1017.9 |
| 20260509111912 | 20 | 34 | 4.8 | 6.4 | 0.00 | 0.00 | 0.00 | 46 | 1018.1 |
| 20260509111402 | 20 | 34 | 4.8 | 6.4 | 0.00 | 0.00 | 0.00 | 46 | 1018.1 |
| 20260509110902 | 20 | 34 | 4.8 | 6.4 | 0.00 | 0.00 | 0.00 | 46 | 1018.4 |
| 20260509110402 | 20 | 34 | 4.8 | 6.4 | 0.00 | 0.00 | 0.00 | 46 | 1018.4 |